Regional Weather Roundup
Issued by NWS

Home | Current Version | Previous Version | Graphics & Text | Print | Product List | Glossary On
Versions: 1 2 3 4 5 6 7 8 9 10 11 12 13 14 15 16 17 18 19 20 21 22 23 24 25 26 27 28 29 30 31 32 33 34 35 36 37 38 39 40 41 42 43 44 45 46 47 48 49 50
000
ASUS43 KMKX 251320
RWRWI

WISCONSIN REGIONAL WEATHER ROUNDUP
NATIONAL WEATHER SERVICE MILWAUKEE/SULLIVAN WI
800 AM CDT WED APR 25 2018

NOTE: "FAIR" INDICATES FEW OR NO CLOUDS BELOW 12,000 FEET WITH NO
SIGNIFICANT WEATHER AND/OR OBSTRUCTIONS TO VISIBILITY.

WIZ001-002-006>008-014>016-023>028-251400-
NORTHWEST WISCONSIN

CITY           SKY/WX    TMP DP  RH WIND       PRES   REMARKS
SUPERIOR ARPT  FAIR      34  26  71 CALM      30.28S
ASHLAND        FAIR      34  27  75 W3        30.26S
HAYWARD        FAIR      33  26  75 NE5       30.25R WCI  29
SIREN          FAIR      34  24  66 NE3       30.26F
CUMBERLAND     FAIR      32  25  74 CALM      30.24F
RICE LAKE      FAIR      36  28  74 N5        30.25F WCI  32
CHETEK         FAIR      34  27  75 CALM      30.25S
LADYSMITH      FAIR      36  29  74 NE6       30.24F WCI  32
EAU CLAIRE     FAIR      37  27  67 NE8       30.23S WCI  31
MENOMONIE      FAIR      38  28  67 N6        30.24F WCI  33
NEW RICHMOND   FAIR      35  25  67 NE7       30.25F WCI  29
OSCEOLA        FAIR      35  26  69 N3        30.29F
$$

WIZ003>005-009-010-017-018-251400-
NORTH CENTRAL WISCONSIN

CITY           SKY/WX    TMP DP  RH WIND       PRES   REMARKS
MANITOWISH WTR FAIR      30  29  96 CALM      30.20S
ARBOR VITAE    FAIR      32  30  92 N3        30.20S
WOODRUFF       FAIR      32  30  92 N3        30.20S
RHINELANDER    FAIR      32  29  88 NE5       30.20R WCI  27
EAGLE RIVER    FAIR      31  27  84 N6        30.18S WCI  25
LAND O LAKES   FAIR      32  26  78 N7        30.20S WCI  26
PHILLIPS       FAIR      33  28  84 NE7       30.21S WCI  26
TOMAHAWK       FAIR      31  29  94 N6        30.21S WCI  25
MEDFORD        FAIR      33  28  82 NE6       30.21R WCI  27
MERRILL        FAIR      33  29  86 N6        30.21S WCI  27
$$

WIZ029-030-035-036-043>047-251400-
CENTRAL WISCONSIN

CITY           SKY/WX    TMP DP  RH WIND       PRES   REMARKS
WAUSAU         FAIR      34  27  75 N8        30.19R WCI  27
MOSINEE        SUNNY     34  28  80 N10       30.22R WCI  26
MARSHFIELD     FAIR      36  29  75 NE9       30.19R WCI  29
STEVENS POINT  FAIR      35  30  82 N9        30.20S WCI  28
WAUPACA        FAIR      41  31  67 N10       30.20S
WAUTOMA        FAIR      40  31  70 N10       30.19S WCI  33
WISC RAPIDS    FAIR      39  28  64 N12       30.21R WCI  32
CAMP DOUGLAS   MOSUNNY   39  36  87 N3        30.19S
$$

WIZ011>013-019>022-031-037>040-048>050-251400-
NORTHEAST WISCONSIN

CITY           SKY/WX    TMP DP  RH WIND       PRES   REMARKS
ANTIGO         FAIR      32  28  83 N8        30.19S WCI  25
SHAWANO        FAIR      39  30  69 N10       30.20S WCI  33
OCONTO         FAIR      37  29  72 N7        30.19R WCI  32
STURGEON BAY   FAIR      35  30  82 N16G24    30.17R WCI  25
GREEN BAY      FAIR      39  29  67 N15       30.18S WCI  31
MANITOWOC      FAIR      39  30  70 N12       30.16S WCI  32
APPLETON       SUNNY     37  27  65 N15       30.16S WCI  28
CLINTONVILLE   FAIR      38  28  65 NE10G17   30.20S WCI  31
OSHKOSH        FAIR      40  32  73 N12       30.17S WCI  33
$$

WIZ032>034-041-042-053>061-251400-
SOUTHWEST WISCONSIN

CITY           SKY/WX    TMP DP  RH WIND       PRES   REMARKS
LA CROSSE      FAIR      43  35  73 N8        30.21S
SPARTA         FAIR      38  34  88 N7        30.22S WCI  32
VIROQUA        FAIR      41  38  90 NE12      30.17S
BOSCOBEL       FAIR      46  37  71 NE8       30.18S
PRAIRIE DU CHI FAIR      45  34  66 N5        30.19R
PLATTEVILLE    FAIR      46  39  77 N10       30.16R
$$

WIZ056-057-062-063-064-067-068-251400-
SOUTH CENTRAL WISCONSIN

CITY           SKY/WX    TMP DP  RH WIND       PRES   REMARKS
REEDSBURG      FAIR      42  35  76 NE8       30.17S
BARABOO/DELLS  FAIR      40  35  80 NE8       30.17S
LONE ROCK      FAIR      46  38  73 NE12G20   30.17S
MINERAL POINT  FAIR      45  39  81 NE12      30.15R
MADISON        FAIR      43  36  76 N14       30.15S
MIDDLETON      FAIR      45  37  75 N12       30.16S
WATERTOWN      FAIR      42  38  86 N13       30.14S
MONROE         FAIR      43  32  65 N15       30.13S
JANESVILLE     SUNNY     46  34  61 NE12      30.13S
$$

WIZ051-052-058>065-066-070>072-251400-
SOUTHEAST WISCONSIN

CITY           SKY/WX    TMP DP  RH WIND       PRES   REMARKS
MILWAUKEE      FAIR      45  33  63 N16G25    30.13R
WAUKESHA       SUNNY     41  32  70 N7        30.14S
MILWAUKEE/TIMM SUNNY     43  30  61 N10G22    30.14R
RACINE         FAIR      43  35  73 N17G25    30.14R
BURLINGTON     FAIR      44  33  66 N13       30.12S
KENOSHA        FAIR      44  34  67 N14G20    30.12R
FOND DU LAC    FAIR      41  32  70 N17       30.17S
SHEBOYGAN      FAIR      41  33  73 N10       30.15S
WEST BEND      FAIR      41  32  70 N10G16    30.15S
JUNEAU         FAIR      40  34  79 N13       30.16S WCI  33
$$

LSZ147-162-251400-
LAKE SUPERIOR

STATION/POSITION TIME  TEMP    WIND        PRES    WAVE
                       AIR SEA DIR/SP/G            HT/PER
                 (UTC) (F)     (DEG/KT/KT) (MB)    (FT/S)
DEVILS ISLAND    1300   35      10/  5/  6 1025.6S
SAXON HARBOR     1240   31     210/  1/  2 1024.0S
$$

LMZ867-665-643>646-251400-
LAKE MICHIGAN

STATION/POSITION TIME  TEMP    WIND        PRES    WAVE
                       AIR SEA DIR/SP/G            HT/PER
                 (UTC) (F)     (DEG/KT/KT) (MB)    (FT/S)
NORTHPORT PIER   1240   35                 1021.0S
KEWAUNEE LAKESHO 1254   38     340/  9/ 15 1020.5R
SHEBOYGAN LAKESH 1300   39     350/ 17/ 19 1021.4R
PORT WASHINGTON  1240   44     350/  5/ 14 1021.7S
MILWAUKEE LAKESH 1300   42      10/ 17/ 21   N/A
KENOSHA   LAKESH 1300   42                 1019.6
$$

TC  - TEMPERATURE IN CELSIUS
VSB - VISIBILITY IN STATUTE MILES
WCI - WIND CHILL INDEX
HX  - HEAT INDEX





USA.gov is the U.S. government's official web portal to all federal, state and local government web resources and services.